Location: Enikep?du
(16.5133°N, 80.7066°E)
Time: 04:29:22
(UTC+00:00)

Meteosat 1 Rocket2 - Pass Details

Date: 15 May 2026
Orbit: 485 x 2266 km, 28.3° (Epoch: 6 June)

Event Time Altitude Azimuth Distance (km) Brightness Sun altitude
Exits shadow 22:43:38 10° 294° (WNW) 3,125 6.3 -19.0°
Reaches altitude 10° 22:43:45 10° 294° (WNW) 3,086 6.3 -19.0°
Maximum altitude 22:51:00 89° 212° (SSW) 837 3.6 -17.4°
Drops below altitude 10° 22:55:45 10° 116° (ESE) 2,058 6.3 -16.4°
Sets 22:57:42 0° 116° (ESE) 2,827 7.0 -16.0°
